Date String (YYYY-MM-DD hh:mm:ss) UTC,Instrument flags,Ambient pressure (hPa),Sample flow (lpm),Bypass flow (lpm),Sample temperature (°C),Ambient temperature (°C),ASC tube jacket temperature (°C),LED temperature (°C),Box temperature (°C),Sample RH (%),Span deviation,Mass concentration (μg/m³),Mass concentration (μg/m³),Mass concentration (μg/m³)
DateTimeUTC,F1_M11,P_M11,Q1_M11,Q2_M11,T1_M11,T2_M11,T3_M11,T4_M11,T5_M11,U1_M11,ZSPAN_M11,X0_M11,X2_M11,X1_M11
2023-02-19 03:00:00,,0817.0,5.00,0.00,21.6,19.7,00.0,30.7,23.2,05.9,0000.0,0008.37,0002.75,0001.48
2023-02-19 03:01:00,,0816.9,4.99,0.00,21.6,20.5,00.0,30.6,23.4,06.0,0000.0,0008.66,0002.80,0001.48
2023-02-19 03:02:00,,0816.8,4.99,0.00,21.8,21.8,00.0,30.6,23.8,06.1,0000.0,0008.73,0002.84,0001.47
2023-02-19 03:03:00,,0816.6,5.04,0.00,21.9,22.6,00.0,30.6,24.0,05.9,0000.0,0008.80,0002.90,0001.47
2023-02-19 03:04:00,,0816.8,4.97,0.00,22.0,22.3,00.0,30.7,24.0,05.8,0000.0,0008.81,0002.88,0001.48
2023-02-19 03:05:00,,0816.6,5.00,0.00,22.0,21.7,00.0,30.7,23.9,06.0,0000.0,0009.09,0002.83,0001.47
2023-02-19 03:06:00,,0816.8,4.99,0.00,22.0,21.3,00.0,30.8,23.8,06.0,0000.0,0008.65,0002.77,0001.47
2023-02-19 03:07:00,,0816.7,4.96,0.00,22.0,21.0,00.0,30.8,23.7,06.1,0000.0,0008.10,0002.68,0001.46
2023-02-19 03:08:00,,0816.8,4.99,0.00,22.0,20.8,00.0,30.8,23.7,06.0,0000.0,0007.52,0002.64,0001.46
2023-02-19 03:09:00,,0816.6,4.99,0.00,22.0,20.7,00.0,30.8,23.6,06.0,0000.0,0007.44,0002.70,0001.47
2023-02-19 03:10:00,,0816.7,5.01,0.00,21.9,20.5,00.0,30.8,23.5,05.8,0000.0,0007.38,0002.75,0001.48
2023-02-19 03:11:00,,0816.6,5.00,0.00,21.9,20.4,00.0,30.8,23.5,06.0,0000.0,0007.19,0002.71,0001.47
2023-02-19 03:12:00,,0816.7,5.00,0.00,21.9,20.3,00.0,30.8,23.4,06.1,0000.0,0006.67,0002.66,0001.47
2023-02-19 03:13:00,,0816.8,4.98,0.00,21.8,20.3,00.0,30.8,23.4,05.8,0000.0,0006.55,0002.64,0001.48
2023-02-19 03:14:00,,0816.7,5.00,0.00,21.8,20.2,00.0,30.8,23.4,05.6,0000.0,0006.88,0002.61,0001.47
2023-02-19 03:15:00,,0816.5,5.00,0.00,21.8,20.4,00.0,30.8,23.4,05.6,0000.0,0007.18,0002.65,0001.47
2023-02-19 03:16:00,,0816.6,5.00,0.00,21.9,21.4,00.0,30.7,23.8,05.7,0000.0,0006.30,0002.65,0001.47
2023-02-19 03:17:00,,0816.8,4.97,0.00,22.0,22.5,00.0,30.7,24.1,05.7,0000.0,0007.03,0002.66,0001.48
2023-02-19 03:18:00,,0816.6,4.99,0.00,22.1,22.5,00.0,30.8,24.1,05.9,0000.0,0007.40,0002.61,0001.49
2023-02-19 03:19:00,,0816.9,5.00,0.00,22.1,22.0,00.0,30.8,24.0,06.0,0000.0,0007.73,0002.73,0001.50
2023-02-19 03:20:00,,0817.0,4.98,0.00,22.1,21.6,00.0,30.9,23.9,06.1,0000.0,0008.65,0002.83,0001.50
2023-02-19 03:21:00,,0816.9,5.00,0.00,22.1,21.3,00.0,30.9,23.8,05.6,0000.0,0008.70,0002.82,0001.50
2023-02-19 03:22:00,,0817.2,5.02,0.00,22.1,21.0,00.0,30.9,23.8,05.3,0000.0,0008.61,0002.83,0001.49
2023-02-19 03:23:00,,0817.3,4.99,0.00,22.1,20.8,00.0,30.9,23.7,05.1,0000.0,0008.51,0002.77,0001.48
2023-02-19 03:24:00,,0817.2,5.01,0.00,22.0,20.6,00.0,30.9,23.7,05.1,0000.0,0008.49,0002.75,0001.49
2023-02-19 03:25:00,,0817.1,5.02,0.00,22.0,20.4,00.0,30.9,23.6,05.4,0000.0,0008.16,0002.68,0001.48
2023-02-19 03:26:00,,0817.0,4.99,0.00,22.0,20.3,00.0,30.9,23.6,05.4,0000.0,0007.99,0002.63,0001.49
2023-02-19 03:27:00,,0817.2,5.01,0.00,21.9,20.3,00.0,30.9,23.6,05.3,0000.0,0008.11,0002.66,0001.48
2023-02-19 03:28:00,,0817.1,4.99,0.00,21.9,20.2,00.0,30.9,23.5,05.4,0000.0,0007.90,0002.63,0001.47
2023-02-19 03:29:00,,0817.0,5.01,0.00,21.9,20.1,00.0,30.9,23.5,05.7,0000.0,0007.77,0002.62,0001.46
2023-02-19 03:30:00,,0816.9,5.00,0.00,21.9,20.0,00.0,30.9,23.4,05.7,0000.0,0007.18,0002.52,0001.44
2023-02-19 03:31:00,,0817.0,4.98,0.00,21.8,20.1,00.0,30.8,23.4,05.9,0000.0,0006.16,0002.45,0001.43
2023-02-19 03:32:00,,0817.0,4.97,0.00,21.9,20.9,00.0,30.8,23.6,05.8,0000.0,0006.92,0002.52,0001.43
2023-02-19 03:33:00,,0817.0,5.00,0.00,22.0,22.1,00.0,30.7,24.0,05.4,0000.0,0006.96,0002.55,0001.44
2023-02-19 03:34:00,,0817.0,5.04,0.00,22.1,22.9,00.0,30.8,24.2,05.2,0000.0,0006.97,0002.57,0001.44
2023-02-19 03:35:00,,0817.2,5.00,0.00,22.2,22.4,00.0,30.9,24.2,05.4,0000.0,0006.96,0002.55,0001.43
2023-02-19 03:36:00,,0817.3,5.00,0.00,22.2,21.9,00.0,30.9,24.1,05.5,0000.0,0007.14,0002.58,0001.43
2023-02-19 03:37:00,,0817.3,5.00,0.00,22.2,21.4,00.0,31.0,24.0,05.5,0000.0,0007.45,0002.59,0001.43
2023-02-19 03:38:00,,0817.3,5.00,0.00,22.2,21.1,00.0,31.0,23.9,05.3,0000.0,0007.71,0002.57,0001.43
2023-02-19 03:39:00,,0817.4,5.01,0.00,22.1,20.8,00.0,31.0,23.8,05.2,0000.0,0007.66,0002.59,0001.44
2023-02-19 03:40:00,,0817.3,5.00,0.00,22.1,20.6,00.0,31.0,23.7,05.2,0000.0,0007.60,0002.69,0001.44
2023-02-19 03:41:00,,0816.9,5.01,0.00,22.0,20.4,00.0,31.0,23.7,05.4,0000.0,0008.34,0002.71,0001.44
2023-02-19 03:42:00,,0817.0,5.00,0.00,22.0,20.3,00.0,31.0,23.6,05.5,0000.0,0008.36,0002.72,0001.46
2023-02-19 03:43:00,,0817.1,5.00,0.00,22.0,20.3,00.0,30.9,23.5,05.5,0000.0,0007.80,0002.60,0001.46
2023-02-19 03:44:00,,0817.1,5.00,0.00,21.9,20.2,00.0,30.9,23.5,05.8,0000.0,0008.04,0002.60,0001.46
2023-02-19 03:45:00,,0817.3,5.00,0.00,21.9,20.2,00.0,30.9,23.4,05.8,0000.0,0008.43,0002.56,0001.46
2023-02-19 03:46:00,,0817.1,5.00,0.00,21.9,20.1,00.0,30.9,23.4,05.9,0000.0,0009.56,0002.58,0001.48
2023-02-19 03:47:00,,0817.0,4.99,0.00,21.8,20.1,00.0,30.9,23.4,05.8,0000.0,0009.58,0002.61,0001.50
2023-02-19 03:48:00,,0817.1,5.03,0.00,21.9,20.9,00.0,30.8,23.6,05.8,0000.0,0009.41,0002.67,0001.50
2023-02-19 03:49:00,,0817.2,5.02,0.00,22.0,22.1,00.0,30.8,24.0,05.6,0000.0,0009.20,0002.72,0001.51
2023-02-19 03:50:00,,0817.2,5.01,0.00,22.1,22.9,00.0,30.8,24.2,05.6,0000.0,0009.29,0002.72,0001.50
2023-02-19 03:51:00,,0817.3,5.01,0.00,22.2,22.5,00.0,30.9,24.2,05.5,0000.0,0009.29,0002.66,0001.52
2023-02-19 03:52:00,,0817.4,5.01,0.00,22.2,21.9,00.0,30.9,24.0,05.4,0000.0,0008.90,0002.73,0001.53
2023-02-19 03:53:00,,0817.4,4.99,0.00,22.2,21.5,00.0,31.0,23.9,05.0,0000.0,0008.92,0002.81,0001.53
2023-02-19 03:54:00,,0817.5,4.98,0.00,22.2,21.2,00.0,31.0,23.9,05.2,0000.0,0009.20,0002.87,0001.54
2023-02-19 03:55:00,,0817.5,5.01,0.00,22.1,21.0,00.0,31.0,23.8,05.6,0000.0,0009.37,0002.87,0001.55
2023-02-19 03:56:00,,0817.4,5.01,0.00,22.1,20.8,00.0,31.0,23.8,05.7,0000.0,0010.09,0002.89,0001.54
2023-02-19 03:57:00,,0817.3,5.01,0.00,22.1,20.6,00.0,31.0,23.7,05.7,0000.0,0008.98,0002.95,0001.54
2023-02-19 03:58:00,,0817.3,5.00,0.00,22.0,20.4,00.0,31.0,23.7,05.3,0000.0,0008.94,0002.91,0001.53
2023-02-19 03:59:00,,0817.3,5.00,0.00,22.0,20.3,00.0,31.0,23.6,05.3,0000.0,0008.78,0002.80,0001.53
